Location: Munkebjergskolens Observatorium
(55.3864°N, 10.3987°E)
Time: 12:47:04
(UTC+02:00)

QB50P2 - Pass Details

Date: 10 April 2023
Orbit: 581 x 596 km, 98.0° (Epoch: 30 May)

Event Time Altitude Azimuth Distance (km) Brightness Sun altitude
Rises 02:59:04 0° 18° (NNE) 2,831 ? -23.5°
Reaches altitude 10° 03:01:17 10° 23° (NNE) 1,923 ? -23.4°
Maximum altitude 03:05:22 52° 100° (E) 734 ? -23.1°
Enters shadow 03:05:47 50° 124° (ESE) 755 ? -23.1°
